Teterboro, NJ

8:37 PM EST on December 14, 2017 (GMT -0500)
Teterboro

Weather History for KTEB - January, 2012

Change the Weather History Date:

Saturday, January 7, 2012

  Actual Average Record
Temperature  
Mean Temperature 46 °F -  
Max Temperature 61 °F 38 °F 61 °F (2008)
Min Temperature 30 °F 25 °F 6 °F (2014)
Degree Days  
Heating Degree Days 20    
Moisture  
Dew Point 30 °F    
Average Humidity 55    
Maximum Humidity 82    
Minimum Humidity 31    
Precipitation  
Precipitation 0.00 in - - ()
Sea Level Pressure  
Sea Level Pressure 29.80 in    
Wind  
Wind Speed 4 mph (West)    
Max Wind Speed 17 mph    
Max Gust Speed 25 mph    
Visibility 10 miles    
Events      
Averages and records for this station are not official NWS values.
T = Trace of Precipitation, MM = Missing Value Source: NWS Daily Summary

Daily Weather History Graph

Daily Weather History Graph

Search for Another Location

Airport or City:

Trip Planner

Search our weather history database for the weather conditions in past years. The results will help you decide how hot, cold, wet, or windy it might be!

Date:

Astronomy

Jan. 07, 2012 Rise Set
Actual Time 7:20 AM EST 4:44 PM EST
Civil Twilight 6:50 AM EST 5:14 PM EST
Nautical Twilight 6:15 AM EST 5:49 PM EST
Astronomical Twilight 5:42 AM EST 6:22 PM EST
Moon 3:25 PM EST (1/7) 5:50 AM EST (1/7)
Length of Visible Light 10h 24m
Length of Day
9h 23m
Waxing Gibbous, 97% of the Moon is Illuminated
Jan 7
Waxing Gibbous
Jan 9
Full
Jan 16
Last Quarter
Jan 23
New
Jan 30
First Quarter

Hourly Weather History & Observations

Time (EST) Temp. Windchill Dew Point Humidity Pressure Visibility Wind Dir Wind Speed Gust Speed Precip Events Conditions
12:51 AM 39.0 °F - 28.0 °F 65% 29.76 in 10.0 mi Calm Calm - N/A   Clear
1:51 AM 39.0 °F - 28.0 °F 65% 29.77 in 10.0 mi Calm Calm - N/A   Clear
2:51 AM 35.1 °F - 27.0 °F 72% 29.77 in 10.0 mi Calm Calm - N/A   Clear
3:51 AM 34.0 °F - 27.0 °F 75% 29.76 in 10.0 mi Calm Calm - N/A   Clear
4:51 AM 30.9 °F - 26.1 °F 82% 29.76 in 10.0 mi Calm Calm - N/A   Clear
5:51 AM 32.0 °F - 26.1 °F 79% 29.76 in 10.0 mi Calm Calm - N/A   Clear
6:51 AM 32.0 °F - 26.1 °F 79% 29.77 in 10.0 mi Calm Calm - N/A   Clear
7:51 AM 32.0 °F - 27.0 °F 82% 29.78 in 10.0 mi Calm Calm - N/A   Clear
8:51 AM 39.0 °F - 32.0 °F 76% 29.79 in 9.0 mi Calm Calm - N/A   Clear
9:51 AM 46.0 °F 44.8 °F 32.0 °F 58% 29.79 in 10.0 mi South 3.5 mph - 0.00 in   Clear
10:51 AM 53.1 °F - 30.0 °F 41% 29.77 in 10.0 mi South 9.2 mph - 0.00 in   Clear
11:51 AM 59.0 °F - 28.0 °F 31% 29.73 in 10.0 mi SW 12.7 mph - N/A   Clear
12:51 PM 60.1 °F - 30.0 °F 32% 29.71 in 10.0 mi WSW 17.3 mph 24.2 mph N/A   Clear
1:51 PM 61.0 °F - 32.0 °F 34% 29.71 in 10.0 mi WSW 13.8 mph 20.7 mph N/A   Clear
2:51 PM 61.0 °F - 34.0 °F 36% 29.73 in 10.0 mi West 11.5 mph 24.2 mph N/A   Mostly Cloudy
3:51 PM 60.1 °F - 35.1 °F 39% 29.74 in 10.0 mi West 16.1 mph 24.2 mph N/A   Clear
4:51 PM 57.9 °F - 35.1 °F 42% 29.78 in 10.0 mi West 8.1 mph 19.6 mph N/A   Clear
5:51 PM 55.9 °F - 35.1 °F 45% 29.81 in 10.0 mi WSW 5.8 mph - N/A   Clear
6:51 PM 54.0 °F - 35.1 °F 49% 29.83 in 10.0 mi West 5.8 mph - N/A   Clear
7:51 PM 50.0 °F - 34.0 °F 54% 29.86 in 10.0 mi WNW 5.8 mph - N/A   Clear
8:51 PM 52.0 °F - 32.0 °F 47% 29.88 in 10.0 mi West 4.6 mph - N/A   Clear
9:51 PM 48.9 °F - 28.0 °F 44% 29.93 in 10.0 mi NNW 10.4 mph 25.3 mph N/A   Clear
10:51 PM 46.9 °F - 24.1 °F 41% 29.96 in 10.0 mi NNW 9.2 mph - N/A   Clear
11:51 PM 45.0 °F 43.5 °F 23.0 °F 42% 29.98 in 10.0 mi NW 3.5 mph - N/A   Clear